Погода в Ейске

Погода в Ейске : погода сейчас, прогноз погоды и архив. Всё, что Вы хотите узнать о погоде в Ейске!

Хотите узнать прогноз погоды в Ейске? Тогда Вам сюда: Погода в Ейске

Поиск расширенной информации на нашем сайте:

Другие новости

Новости СМИ2

Главная страница сайта

Новости сайта

02.10.2013

Напоминаем, что на нашем новом сайте вы можете получить высокодетализированные прогнозы погоды по пунктам России, СНГ и мира (включающие важные для авиации метеовеличины, такие как направление и скорость ветра, видимость, явления погоды, количество и форма облачности, нижняя и верхняя граница облачности), а также ознакомиться с разнообразными материалами по авиационной метеорологии и подборкой полезных ссылок на эту тему.

Сайт Метеоцентр.Азия посвящён разработке технологий оптимизации авиаметеорологического обслуживания, включая проектирование и перспективное создание нескольких автоматизированных авиаметеорологических систем:
- система выпуска высокодетальных прогностических карт явлений погоды для нижнего воздушного пространства по России и ближнему зарубежью;
- система верификации прогнозов TAF (выпускаемых синоптиками официальных АМСГ РФ и ближнего зарубежья) и AUTOTAF (выпускаемых сайтом Метеоцентр.Азия) - выявление ошибок, онлайн-сопоставление с фактической погодой METAR, автоматическое внесение коррективов в прогнозы при резком отклонении фактической погоды от прогноза, подсчёт оправдываемости прогнозов по элементам и в целом;
- система обработки, анализа и отображения авиаметеорологической информации для применения провайдерами метеорологической информации.


Погода в Ейске - сегодня

Время (UTC), дата Ветер
(°,м/с) 
Видим.   Явления Облачность Т
(°С)
Тd
(°С)
f(%) Тe
(°С)
Pmin
(гПа)
dP
(гПа)
Po
(мм)
O2
(г/м3)
Тmin Tmax R s Состояние
почвы
09 26.04.17 160 (Ю) 10 км    ясно 
+14.3 +2.6 45 +14  1029.7  -0.6  770  294           
12 26.04.17 160 (Ю) 4{10}  10 км    ясно 
+16.4 +2.1 38 +16  1028  -1.6  769  292           
15 26.04.17 150 (ЮВ) 10 км    ясно 
+16.8 +2.7 39 +17  1026.4  -1.6  768  291    +17.2       
18 26.04.17 130 (ЮВ) 10 км    ясно 
+11.7 +2.9 55 +11  1026.3  -0.2  767  296           
21 26.04.17 120 (ЮВ) 10 км    ясно 
+9.4 +4.8 73 +8  1025.5  -0.8  767  298           
00 27.04.17 130 (ЮВ) 10 км    ясно 
+8.2 +3.8 74 +7  1024.9  -0.6  766  299           
03 27.04.17 130 (ЮВ) 10 км    ясно 
+7.2 +2.9 74 +5  1024.9  766  300  +6.8        сухая 
06 27.04.17 100 (В) 10 км    ясно 
+12 +3.9 58 +11  1024.9  767  295           
09 27.04.17 040 (СВ) 10 км    ясно 
+13.3 +9 75 +13  1024.4  -0.5  766  293           
12 27.04.17 040 (СВ) 10 км    ясно 
+14.7 +10.2 74 +16  1022.9  -1.4  765  291           
15 27.04.17 050 (СВ) 10 км    ясно 
+15.1 +10.6 74 +17  1021.9  -1  764  290    +16       
18 27.04.17 100 (В) 10 км    ясно 
+15.9 +5.4 50 +17  1022.2  0.3  764  290           
21 27.04.17 110 (В) 10 км    ясно 
+11.7 +6.8 72 +11  1022  -0.3  764  294           
00 28.04.17 120 (ЮВ) 10 км    ясно 
+10.6 +5.6 71 +9  1021.3  -0.7  764  295           
03 28.04.17 120 (ЮВ) 10 км    ясно 
+9.1 +5.7 79 +7  1021.5  0.3  764  297  +9.1        сухая 
06 28.04.17 060 (СВ) 10 км    ясно 
+12.1 +6.5 69 +12  1021.7  0.1  764  294           
09 28.04.17 040 (СВ) 10 км    ясно 
+13.1 +8.3 73 +12  1021.3  -0.4  764  292           
12 28.04.17 040 (СВ) 10 км    ясно 
+14.9 +9.1 68 +15  1020.5  -0.7  763  290           
15 28.04.17 050 (СВ) 10 км    ясно 
+15.3 +9.7 69 +16  1019.1  -1.3  762  289    +15.4       
18 28.04.17 330 (СЗ) 10 км    ясно 
+12.1 +9.3 83 +12  1019.1  762  292           
21 28.04.17 340 (С) 10 км    ясно 
+11.7 +10 89 +14  1018.2  -0.9  761  292           
00 29.04.17 330 (СЗ) 10 км    ясно 
+10.2 +7.8 85 +11  1018.3  761  294           
03 29.04.17 060 (СВ) 10 км    ясно 
+9.1 +7.9 92 +9  1018.2  -0.1  761  296  +5.8        сухая 
06 29.04.17 360 (С) 10 км    ясно 
+14.6 +10.8 78 +18  1018.7  0.6  762  289           
09 29.04.17 030 (СВ) 10 км    ясно 
+15.7 +12.2 80 +20  1018.8  762  288           
Время (UTC), дата Ветер
(°,м/с) 
Видим.   Явления Облачность Т
(°С)
Тd
(°С)
f(%) Тe
(°С)
Pmin
(гПа)
dP
(гПа)
Po
(мм)
O2
(г/м3)
Тmin Tmax R s Состояние
почвы

Для получения пояснительной информации подведите курсор к названию столбца.

ПОГОДА в Ейске - архив

Всё, что Вы хотите узнать о погоде в Ейске - удобно и подробно!

Выберите нужную дату (начиная с 1 января 2015* года) и нажмите кнопку "Найти".
Будут отображены архивные сводки погоды по пункту Ейск, начиная с указанной даты.


Отображать данные в формате CSV (для использования в таблицах Excel)


Внимание! Наш архив погоды предназначен исключительно для личного некоммерческого использования в познавательных целях. Если Вам необходимы официальные справки о состоянии погоды (для производственных, юридических, коммерческих и т.п. целей), обращайтесь в органы Росгидромета.

*Примечание: данная дата относится к архиву по метеостанциям СССР (Россия, СНГ, Балтия).
Архив по метеостанциям Зарубежной Европы и Азии (кроме Китая) хранится 10 дней, по другим регионам земного шара (Китай, Африка, Америка, Австралия, Океания) - 1 день.

Ейск - район местоположения метеостанции


Название, широта, долгота, высота метеостанции:
Ейск 46.8°ш. 38.3°д. 3 м над ур. моря [Российская Федерация]

Дополнительная информация

В oтличие oт бoльшинства пoгoдных сайтoв мы публикуем пoдрoбную метеoинфoрмацию в детальнoм прoфессиoнальнoм фoрмате.

Характеристики температуры и влажнoсти вoздуха измеряются на высoте 2 м в тени вдали oт зданий и деревьев.
Скoрoсть ветра измеряется на высoте 10 м (на урoвне рoста челoвека скoрoсть ветра ниже в 1.5-2 раза). Если метеoстанция нахoдится в гoрoде или в лесу, тo скoрoсть ветра занижена на 2-4 м/с пo сравнению с oткрытым местoм. Скoрoсть ветра над акватoриями крупных рек и oзёр, а также на вершинах хoлмoв на 2-5 м/с выше, чем в oбычных услoвиях.
Атмoсфернoе давление в разных тoчках местнoсти мoжет значительнo oтличаться oт давления на метеoстанции, в зависимoсти oт услoвий рельефа (при пoдъёме на 10 м давление пoнижается примернo на 1 мм рт.ст.).